Regional Weather Roundup
Issued by NWS

Home | Current Version | Previous Version | Text Only | Print | Product List | Glossary Off
Versions: 1 2 3 4 5 6 7 8 9 10 11 12 13 14 15 16 17 18 19 20 21 22 23 24 25 26 27 28 29 30 31 32 33 34 35 36 37 38 39 40 41 42 43 44 45 46 47 48 49 50

000
ASUS43 KOAX 240510
RWRNE

WEATHER ROUNDUP FOR NEBRASKA
NATIONAL WEATHER SERVICE OMAHA NE
1200 AM CDT SUN JUL 24 2016

NOTES: SATELLITE DATA IS BEING USED TO AUGMENT CLOUD COVER ABOVE
       12000 FEET.
       "FAIR" INDICATES FEW OR NO CLOUDS BELOW 12,000 FEET WITH NO
       SIGNIFICANT WEATHER AND/OR OBSTRUCTIONS TO VISIBILITY.

  * THESE STATIONS DO NOT REPORT WEATHER SUCH AS RAIN...SNOW OR FOG.

NEZ001>004-019>022-054>056-240600-
NEBRASKA PANHANDLE

CITY           SKY/WX    TMP DP  RH WIND       PRES   REMARKS
SCOTTSBLUFF    CLEAR     70  57  63 SE6       30.06R
ALLIANCE       CLEAR     66  58  75 NE7       30.05R
CHADRON        CLEAR     67  49  52 CALM      30.03R
KIMBALL        CLOUDY    77  49  36 SW15G28   30.12F
SIDNEY         CLOUDY    74  54  49 S6        30.12R
$$

NEZ057>060-069>072-079>082-240600-
SOUTHWEST NEBRASKA

CITY           SKY/WX    TMP DP  RH WIND       PRES   REMARKS
NORTH PLATTE   PTCLDY    74  62  66 NE10      29.96R
IMPERIAL       PTCLDY    79  67  66 CALM      30.00R
LEXINGTON      CLEAR     77  70  80 N6        29.92R
MCCOOK         CLOUDY    75  69  81 N5        29.93R
OGALLALA       CLOUDY    79  60  51 E5        30.02R
$$

NEZ005>010-023>029-035>040-094-240600-
NORTH CENTRAL NEBRASKA

CITY           SKY/WX    TMP DP  RH WIND       PRES   REMARKS
VALENTINE      PTCLDY    72  54  53 NE3       29.98R
AINSWORTH      CLEAR     67  59  76 N6        29.99R
BROKEN BOW     CLEAR     73  62  68 N10       29.94R
O`NEILL        CLEAR     77  66  69 N9        29.93R
ORD            CLEAR     76  64  66 N7        29.90R
THEDFORD       PTCLDY    75  56  51 NE7       30.00R
$$

NEZ041-046>049-061>064-073>077-083>087-240600-
SOUTH CENTRAL NEBRASKA

CITY           SKY/WX    TMP DP  RH WIND       PRES   REMARKS
GRAND ISLAND   CLEAR     79  74  84 CALM      29.87R
AURORA         CLEAR     77  76  97 CALM      29.86R
HASTINGS       CLEAR     79  74  84 N3        29.88R
HEBRON         CLOUDY    82  69  64 W3        29.83R
HOLDREGE       CLEAR     76  72  85 N5        29.90R
KEARNEY *      CLEAR     79  72  78 N3        29.90R
YORK           CLEAR     79  72  78 CALM      29.85R
$$

NEZ011>018-030>034-042>045-240600-
NORTHEAST NEBRASKA

CITY           SKY/WX    TMP DP  RH WIND       PRES   REMARKS
NORFOLK        CLEAR     80  74  81 W9        29.83R
ALBION         CLEAR     79  70  75 N7        29.88R
BLAIR          CLOUDY    79  76  90 S6        29.83R
FREMONT        CLEAR     85  71  61 S9        29.83R HX  90
TEKAMAH        CLEAR     78  75  90 SE6       29.80R
WAYNE          CLEAR     80  78  94 CALM      29.83R
$$

NEZ050>053-065>068-078-088>093-240600-
SOUTHEAST NEBRASKA

CITY           SKY/WX    TMP DP  RH WIND       PRES   REMARKS
LINCOLN        CLEAR     85  72  65 CALM      29.84R HX  91
OMAHA EPPLEY   CLOUDY    84  76  76 S6        29.82R HX  93
BEATRICE       CLOUDY    84  70  63 S9        29.83S
FALLS CITY     CLOUDY    83  72  69 S8        29.83S
NEBRASKA CITY  CLOUDY    80  74  83 S8        29.84S
PLATTSMOUTH    CLOUDY    82  75  80 S10       29.83R
$$

NEZ044-045-051>053-067-240600-
OMAHA AREA

CITY           SKY/WX    TMP DP  RH WIND       PRES   REMARKS
OMAHA EPPLEY   CLOUDY    84  76  76 S6        29.82R HX  93
BLAIR          CLOUDY    79  76  90 S6        29.83R
FREMONT        CLEAR     85  71  61 S9        29.83R HX  90
MILLARD        CLOUDY    84  76  78 CALM      29.82S HX  93
OFFUTT AFB     CLOUDY    84  75  75 S6        29.82R HX  91
PLATTSMOUTH    CLOUDY    82  75  80 S10       29.83R
WAHOO          FAIR      78  73  83 S5        29.83S
$$



USA.gov is the U.S. government's official web portal to all federal, state and local government web resources and services.